Location: Unspecified
(0.0000°N, 0.0000°E)
Time: 10:06:25
(UTC+00:00)

NNS O-29 - Pass Details

Date: 07 August 2024
Orbit: 1013 x 1173 km, 90.4° (Epoch: 07 September)

Event Time Altitude Azimuth Distance (km) Brightness Sun altitude
Rises 20:02:11 0° 332° (NNW) 3,815 10.7 -27.9°
Reaches altitude 10° 20:05:44 10° 313° (NW) 2,838 10.2 -28.7°
Maximum altitude 20:09:39 17° 275° (W) 2,349 9.7 -29.6°
Drops below altitude 10° 20:13:32 10° 237° (WSW) 2,804 9.8 -30.6°
Sets 20:17:03 0° 217° (SW) 3,749 10.3 -31.4°
